TimeEST,TemperatureF,Dew PointF,Humidity,Sea Level PressureIn,VisibilityMPH,Wind Direction,Wind SpeedMPH,Gust SpeedMPH,PrecipitationIn,Events,Conditions,WindDirDegrees,DateUTC
12:15 AM,51.1,51.1,100,29.97,0.5,Calm,Calm,-,N/A,Fog,Fog,0,2012-12-10 05:15:00
12:35 AM,51.1,51.1,100,29.96,0.2,Calm,Calm,-,N/A,Fog,Fog,0,2012-12-10 05:35:00
12:55 AM,50.5,50.5,100,29.96,0.2,Calm,Calm,-,N/A,Fog,Fog,0,2012-12-10 05:55:00
1:15 AM,51.3,51.3,100,29.95,0.2,Calm,Calm,-,N/A,Fog,Fog,0,2012-12-10 06:15:00
1:35 AM,51.8,51.8,100,29.93,1.5,Calm,Calm,-,N/A,,Overcast,0,2012-12-10 06:35:00
1:55 AM,50.9,50.9,100,29.93,0.8,Calm,Calm,-,N/A,,Overcast,0,2012-12-10 06:55:00
2:15 AM,51.4,51.4,100,29.93,1.0,WSW,3.5,-,N/A,,Overcast,250,2012-12-10 07:15:00
2:35 AM,53.1,53.1,100,29.93,1.5,Calm,Calm,-,N/A,,Overcast,0,2012-12-10 07:35:00
2:55 AM,55.0,55.0,100,29.92,1.8,Calm,Calm,-,N/A,,Overcast,0,2012-12-10 07:55:00
3:15 AM,57.7,57.7,100,29.91,3.0,SW,3.5,-,N/A,,Overcast,230,2012-12-10 08:15:00
3:55 AM,56.8,56.8,100,29.89,3.0,Calm,Calm,-,N/A,,Mostly Cloudy,0,2012-12-10 08:55:00
4:15 AM,56.1,56.1,100,29.88,2.0,Calm,Calm,-,N/A,,Scattered Clouds,0,2012-12-10 09:15:00
4:35 AM,54.9,54.9,100,29.88,0.2,Calm,Calm,-,N/A,Fog,Fog,0,2012-12-10 09:35:00
4:55 AM,55.0,55.0,100,29.86,0.2,Calm,Calm,-,N/A,Fog,Fog,0,2012-12-10 09:55:00
5:15 AM,54.5,54.5,100,29.86,0.5,Calm,Calm,-,N/A,Fog,Fog,0,2012-12-10 10:15:00
5:35 AM,55.0,55.0,100,29.87,0.8,Calm,Calm,-,0.01,,Overcast,0,2012-12-10 10:35:00
5:55 AM,55.9,55.9,100,29.86,2.0,Calm,Calm,-,0.01,,Overcast,0,2012-12-10 10:55:00
6:15 AM,56.5,56.5,100,29.86,2.5,Calm,Calm,-,N/A,,Overcast,0,2012-12-10 11:15:00
6:35 AM,56.7,56.7,100,29.86,2.5,Calm,Calm,-,N/A,,Overcast,0,2012-12-10 11:35:00
7:15 AM,56.5,56.5,100,29.83,2.0,Calm,Calm,-,N/A,,Overcast,0,2012-12-10 12:15:00
7:35 AM,55.2,55.2,100,29.84,1.5,Calm,Calm,-,N/A,,Overcast,0,2012-12-10 12:35:00
7:55 AM,55.6,55.6,100,29.83,0.5,Calm,Calm,-,N/A,Fog,Fog,0,2012-12-10 12:55:00
8:15 AM,56.5,56.5,100,29.83,2.5,Calm,Calm,-,N/A,,Overcast,0,2012-12-10 13:15:00
8:35 AM,56.8,56.8,100,29.82,3.0,Calm,Calm,-,N/A,,Overcast,0,2012-12-10 13:35:00
8:55 AM,57.2,57.2,100,29.83,3.0,Calm,Calm,-,N/A,,Overcast,0,2012-12-10 13:55:00
9:15 AM,57.4,57.4,100,29.83,4.0,Calm,Calm,-,N/A,,Overcast,0,2012-12-10 14:15:00
9:35 AM,57.9,57.9,100,29.82,5.0,Calm,Calm,-,N/A,,Overcast,0,2012-12-10 14:35:00
9:55 AM,58.8,58.8,100,29.81,5.0,SW,4.6,-,N/A,,Overcast,220,2012-12-10 14:55:00
10:15 AM,59.2,59.2,100,29.81,7.0,SW,4.6,-,N/A,,Overcast,220,2012-12-10 15:15:00
10:35 AM,59.9,59.9,100,29.79,10.0,SW,8.1,-,N/A,,Overcast,230,2012-12-10 15:35:00
10:55 AM,59.9,59.9,100,29.79,10.0,SW,5.8,-,N/A,,Overcast,220,2012-12-10 15:55:00
11:15 AM,61.9,61.0,97,29.78,10.0,SSW,10.4,-,N/A,,Overcast,210,2012-12-10 16:15:00
11:35 AM,63.1,57.7,83,29.77,10.0,SW,9.2,-,N/A,,Overcast,220,2012-12-10 16:35:00
11:55 AM,63.7,57.4,80,29.75,10.0,SSW,9.2,-,N/A,,Overcast,210,2012-12-10 16:55:00
12:15 PM,64.0,57.4,79,29.74,10.0,SSW,10.4,-,N/A,,Overcast,200,2012-12-10 17:15:00
12:35 PM,63.7,57.6,80,29.74,10.0,SW,5.8,16.1,N/A,,Overcast,220,2012-12-10 17:35:00
12:55 PM,63.7,57.7,81,29.73,10.0,SW,6.9,-,N/A,Rain,Light Rain,220,2012-12-10 17:55:00
1:15 PM,63.5,58.1,83,29.72,10.0,SW,9.2,-,N/A,Rain,Light Rain,230,2012-12-10 18:15:00
1:35 PM,62.6,59.0,88,29.71,4.0,WSW,10.4,-,N/A,Rain,Rain,240,2012-12-10 18:35:00
1:55 PM,61.2,59.5,94,29.70,1.8,WSW,5.8,-,N/A,,Heavy Drizzle,240,2012-12-10 18:55:00
2:15 PM,61.3,60.1,96,29.70,4.0,WSW,5.8,-,N/A,,Overcast,240,2012-12-10 19:15:00
2:35 PM,61.7,60.4,96,29.70,7.0,SW,3.5,-,N/A,,Overcast,230,2012-12-10 19:35:00
2:55 PM,62.6,60.6,93,29.70,10.0,SW,4.6,-,N/A,,Overcast,220,2012-12-10 19:55:00
3:15 PM,62.8,59.2,88,29.70,10.0,SW,8.1,-,N/A,,Overcast,220,2012-12-10 20:15:00
3:35 PM,63.0,59.0,87,29.70,10.0,SW,6.9,-,N/A,,Overcast,220,2012-12-10 20:35:00
3:55 PM,63.0,59.0,87,29.70,10.0,WSW,4.6,-,N/A,,Overcast,240,2012-12-10 20:55:00
4:15 PM,63.1,59.0,86,29.71,10.0,SW,4.6,-,N/A,,Overcast,230,2012-12-10 21:15:00
4:35 PM,63.0,59.0,87,29.71,10.0,SW,4.6,-,N/A,,Overcast,230,2012-12-10 21:35:00
4:55 PM,62.6,58.8,87,29.70,10.0,Calm,Calm,-,N/A,Rain,Light Rain,0,2012-12-10 21:55:00
5:15 PM,61.9,59.0,90,29.71,10.0,Calm,Calm,-,N/A,,Overcast,0,2012-12-10 22:15:00
5:35 PM,61.2,59.2,93,29.71,7.0,Calm,Calm,-,0.01,Rain,Rain,0,2012-12-10 22:35:00
5:55 PM,60.8,59.2,94,29.71,7.0,Calm,Calm,-,0.01,Rain,Rain,0,2012-12-10 22:55:00
6:15 PM,60.1,59.0,96,29.70,7.0,Calm,Calm,-,N/A,,Light Drizzle,0,2012-12-10 23:15:00
6:35 PM,60.3,59.0,96,29.70,7.0,South,3.5,-,N/A,,Mostly Cloudy,170,2012-12-10 23:35:00
6:55 PM,59.9,59.0,97,29.69,7.0,Calm,Calm,-,N/A,Rain,Light Rain,0,2012-12-10 23:55:00
7:15 PM,59.4,58.6,97,29.66,7.0,SSE,5.8,-,N/A,,Scattered Clouds,150,2012-12-11 00:15:00
7:35 PM,59.5,58.6,97,29.68,10.0,West,3.5,-,N/A,,Scattered Clouds,280,2012-12-11 00:35:00
7:55 PM,59.0,58.1,97,29.70,10.0,Calm,Calm,-,N/A,,Mostly Cloudy,0,2012-12-11 00:55:00
8:15 PM,58.1,57.4,97,29.70,7.0,Calm,Calm,-,N/A,,Mostly Cloudy,0,2012-12-11 01:15:00
8:35 PM,57.0,56.5,98,29.69,1.8,Calm,Calm,-,N/A,,Mostly Cloudy,0,2012-12-11 01:35:00
8:55 PM,57.4,57.4,100,29.68,5.0,Calm,Calm,-,N/A,,Overcast,0,2012-12-11 01:55:00
9:15 PM,59.0,59.0,100,29.68,10.0,SSW,3.5,-,N/A,,Overcast,210,2012-12-11 02:15:00
9:55 PM,59.5,57.7,94,29.66,10.0,SSW,4.6,-,N/A,,Mostly Cloudy,200,2012-12-11 02:55:00
10:15 PM,60.4,57.9,91,29.66,10.0,SW,9.2,-,N/A,,Mostly Cloudy,220,2012-12-11 03:15:00
10:35 PM,61.2,58.1,90,29.66,10.0,SW,10.4,-,N/A,,Overcast,220,2012-12-11 03:35:00
10:55 PM,61.5,57.9,88,29.67,10.0,SW,12.7,17.3,N/A,,Overcast,220,2012-12-11 03:55:00
11:15 PM,61.9,57.7,86,29.68,10.0,SW,9.2,18.4,N/A,,Overcast,220,2012-12-11 04:15:00
11:35 PM,62.1,57.7,86,29.68,10.0,SW,9.2,16.1,N/A,,Overcast,220,2012-12-11 04:35:00
11:55 PM,62.1,57.6,85,29.69,10.0,SW,10.4,17.3,N/A,,Overcast,220,2012-12-11 04:55:00